Wind_Speed
11 5 7 8 9 9 10 6 12 12 17 17 16 16 19 22 28 28 21 14 6 7 9 9 11 12 9 9 14 17 29 25 25 28 25 26 25 22 24 24 31 27 24
15 11 13 11 9 11 14 14 7 7 9 12 14 6 5 6 6 3 3 4 6 8 3 7 7 4 1 2 3 4 5 13 24 26 28 32 33 30 32 39 38 30 28
30 26 21 15 17 19 21 21 18 14 12 12 11 8 7 6 5 6 5 3 8 7 7 9 10 6 10 8 7 8 7 3 6 17 23 27 29 31 33 34 31 31 29
28 28 27 26 27 28 27 27 25 20 16 13 11 8 5 4 4 2 3 1 4 7 5 5 7 6 2 2 6 7 10 2 5 9 15 22 25 28 32 33 33 38 38
26 25 23 20 22 24 23 20 18 19 17 15 13 12 11 10 7 7 6 5 7 7 10 9 5 2 2 2 5 6 6 2 6 11 12 13 18 23 28 30 27 28 31
32 32 31 30 26 23 21 20 20 18 19 18 17 15 16 16 15 15 15 12 10 10 12 14 12 11 10 9 8 7 6 7 1 7 9 12 13 17 20 21 19 20 21
31 31 29 31 29 25 22 20 18 18 16 15 16 17 17 16 16 15 16 15 17 18 17 17 16 16 13 10 9 10 11 8 7 7 7 7 12 12 14 14 16 17 18
32 32 30 29 26 24 23 20 17 14 16 16 17 15 13 15 13 13 13 13 14 12 14 14 14 14 13 11 11 10 10 10 12 13 12 14 15 17 18 17 18 20 22
34 35 33 33 31 31 29 24 21 19 20 20 19 26 27 24 22 17 16 13 11 13 16 16 16 14 13 11 10 11 12 14 15 16 16 19 20 24 23 23 21 20 23
32 32 30 30 30 28 26 26 20 24 22 29 19 27 20 24 20 16 14 14 15 16 16 17 16 16 16 16 14 13 16 16 19 16 17 21 26 27 26 25 25 26 26
29 28 26 27 27 25 23 25 26 22 22 21 19 15 17 19 15 20 19 17 16 17 17 17 18 19 18 18 16 16 14 13 18 18 15 23 28 30 29 32 32 33 31
26 26 25 24 23 21 21 23 22 21 20 18 18 16 16 16 14 15 18 18 19 19 19 19 20 20 16 19 18 22 19 19 19 20 24 27 27 28 32 34 32 33 34
24 23 23 21 22 19 20 20 19 20 20 18 17 17 16 16 17 14 16 18 20 20 20 21 22 20 20 20 23 23 22 22 23 25 25 24 23 24 28 31 31 34 33
25 24 25 22 23 23 22 19 20 23 23 18 19 19 20 18 17 19 22 23 23 23 23 23 24 24 23 23 24 24 23 24 22 22 24 24 24 25 27 28 30 32 32
29 28 26 26 27 22 26 24 23 24 24 22 21 26 29 24 22 22 21 22 21 23 28 31 29 30 31 29 28 26 27 26 23 22 22 21 21 21 25 26 29 33 35
30 30 28 29 30 30 31 23 21 22 25 23 21 18 20 23 23 26 26 24 23 24 28 27 27 32 34 29 27 27 27 27 26 25 21 19 19 21 23 27 30 33 35
25 26 26 28 31 33 34 34 30 25 23 26 24 23 23 25 26 26 26 25 24 27 25 27 29 34 35 32 29 29 33 32 31 30 27 26 26 28 31 29 30 34 37
23 25 26 28 31 29 29 31 30 30 32 29 25 24 25 23 26 27 25 25 28 25 22 27 33 37 35 35 37 42 44 44 41 41 36 33 34 35 35 37 40 42 44
24 27 25 28 29 30 28 27 27 30 31 33 30 26 23 23 23 23 26 27 27 24 25 30 33 38 40 40 44 46 45 42 45 45 46 41 39 39 39 42 45 47 50
23 24 25 29 30 29 28 29 26 26 28 30 33 31 24 23 24 27 29 27 27 28 29 33 35 36 42 46 46 46 49 46 49 48 47 44 37 37 40 42 43 47 52
18 22 22 25 27 29 27 26 26 27 26 28 30 31 33 28 25 27 27 26 28 30 31 30 32 36 42 42 43 47 51 55 53 50 47 45 43 45 48 51 56 60 62
14 17 19 22 24 26 30 30 30 29 29 26 24 25 30 33 31 27 26 27 27 28 27 30 32 33 31 37 41 47 47 55 54 52 51 53 54 57 58 62 66 71 68
8 13 17 18 22 25 27 31 31 31 31 31 29 25 28 31 33 28 25 25 25 25 26 26 30 32 38 42 42 48 51 54 53 53 59 65 65 71 72 73 76 78 66
4 8 13 15 17 20 24 27 30 31 30 33 31 27 27 32 33 30 27 22 25 24 27 27 31 33 36 38 42 45 49 52 57 61 69 73 74 82 83 83 86 79 53
5 4 7 11 12 16 19 22 23 27 30 30 33 30 29 29 32 31 26 19 20 23 26 28 31 30 28 33 40 44 47 50 58 69 72 77 80 86 94 94 92 82 52
14 8 7 7 10 12 15 18 21 24 28 29 28 31 27 26 28 29 24 16 17 19 24 27 32 34 37 36 41 44 48 49 59 65 74 79 88 93 98 100 98 90 59
Wind_Direction
147 178 167 186 209 240 239 291 267 248 245 261 280 291 279 273 277 281 287 285 318 319 314 323 319 300 284 264 248 242 237 223 227 231 233 229 232 239 246 253 259 281 285
112 127 188 202 223 264 267 276 241 252 266 279 284 276 260 250 247 237 162 106 26 354 357 360 10 28 75 90 73 296 268 251 224 229 236 242 245 257 261 261 280 283 284
95 98 106 122 106 106 106 102 109 116 124 123 126 125 120 128 143 135 133 56 15 23 42 31 39 72 119 101 67 47 37 32 225 231 227 236 240 254 267 273 273 275 285
89 91 93 97 98 97 96 102 101 97 97 91 80 89 105 102 84 148 180 247 35 81 62 24 50 60 105 228 258 283 308 276 210 227 236 242 249 257 263 263 264 274 276
82 88 88 88 96 91 95 99 96 96 89 87 85 80 81 90 82 82 94 99 98 77 55 61 67 59 22 322 295 314 4 70 224 237 243 249 257 263 267 268 273 274 275
80 81 81 84 95 93 94 89 97 91 94 86 85 83 88 83 80 76 76 87 81 52 44 50 59 69 69 57 38 24 21 19 326 223 243 242 247 269 264 268 279 289 293
75 75 79 80 84 84 78 79 80 82 74 74 73 71 75 78 78 73 64 53 39 33 30 34 30 18 12 11 16 15 5 357 333 303 290 273 259 259 272 276 283 286 291
75 75 76 78 80 79 74 69 73 71 70 65 65 61 59 50 58 65 57 47 35 28 17 13 8 3 351 341 338 325 316 315 304 296 285 294 283 277 276 281 282 286 291
75 74 73 72 71 69 67 65 63 59 62 60 72 61 52 44 33 30 32 29 13 3 1 5 12 13 3 353 330 313 310 307 302 286 292 286 290 286 279 278 281 284 289
75 71 70 69 67 67 64 58 60 51 45 44 56 38 44 32 38 37 30 14 2 1 360 4 4 1 359 352 346 338 325 324 308 290 273 274 279 278 272 274 281 283 290
70 69 67 64 64 62 60 58 61 63 59 65 62 43 38 35 34 48 28 20 11 10 9 4 2 358 352 352 351 348 350 325 311 291 306 290 278 277 280 276 279 285 287
70 68 69 64 59 57 53 58 57 58 59 62 60 48 42 39 61 30 26 28 21 18 21 18 10 6 9 358 347 341 336 325 326 326 307 300 291 283 283 280 284 286 285
65 68 67 62 58 51 49 53 54 52 57 59 52 34 53 47 48 43 40 38 38 35 31 20 7 11 354 347 341 339 338 332 328 317 308 305 296 291 287 283 290 288 285
62 60 58 53 52 44 50 54 61 58 55 57 44 46 51 53 51 54 43 40 40 37 29 23 16 6 5 0 356 354 348 340 329 317 310 303 300 293 285 280 277 277 272
61 57 56 50 46 47 61 64 61 61 54 56 63 66 56 50 50 49 45 38 39 33 25 21 15 12 13 4 360 355 351 348 343 332 322 312 306 297 291 289 283 277 276
68 63 63 52 50 54 63 59 58 52 54 54 67 70 52 50 50 44 38 34 26 23 29 17 14 18 16 9 6 6 1 357 354 347 342 336 330 319 309 300 293 289 285
70 71 69 58 56 64 68 62 58 54 55 54 61 59 50 47 45 41 39 35 27 27 20 13 20 19 15 12 12 16 16 13 8 4 357 346 335 326 318 312 302 296 292
61 65 65 61 57 59 63 59 57 54 51 50 51 48 48 40 42 37 37 31 29 28 16 20 24 22 26 30 33 34 32 31 23 19 10 357 347 339 327 320 313 307 301
59 51 55 55 56 57 57 55 49 47 46 46 44 42 33 29 30 26 28 30 28 27 24 25 24 37 42 39 41 38 33 29 25 19 17 7 355 344 331 318 312 309 305
49 47 38 41 46 50 51 51 46 41 41 37 41 39 33 33 30 27 29 25 25 27 28 26 44 50 53 48 48 43 36 31 26 23 18 12 358 338 324 319 315 308 304
41 41 38 34 31 35 41 47 47 38 38 34 33 31 30 28 30 30 30 30 32 36 34 48 52 52 53 51 45 39 35 31 28 20 12 2 357 349 339 329 326 324 319
47 39 33 29 31 28 27 32 33 35 33 31 27 29 29 27 25 26 27 35 37 46 56 53 54 51 48 45 43 37 35 29 25 17 12 10 3 353 344 338 333 327 322
56 38 31 30 25 28 23 23 22 30 29 27 25 25 26 24 22 23 25 42 44 54 56 50 50 48 53 50 42 37 40 36 24 24 20 14 7 3 354 346 339 334 329
32 40 27 25 22 22 22 22 19 24 26 29 27 25 21 22 19 24 24 56 43 54 53 45 47 45 43 35 37 38 37 35 29 22 19 16 11 8 2 354 347 349 345
268 343 13 7 7 10 12 16 14 14 19 27 27 24 23 22 19 28 30 51 57 52 47 41 40 34 27 30 36 33 29 25 25 25 21 15 14 11 6 2 356 357 354
251 266 303 325 332 347 354 359 359 7 13 15 26 24 21 22 22 25 33 50 60 48 45 40 39 32 33 33 31 26 25 23 24 20 22 18 15 13 9 5 2 360 359
Height
10957 10958 10958 10959 10960 10960 10962 10961 10962 10963 10964 10964 10964 10963 10964 10963 10961 10959 10957 10957 10955 10952 10950 10948 10946 10943 10941 10942 10943 10945 10948 10950 10950 10952 10953 10952 10954 10954 10954 10954 10954 10952 10951
10957 10958 10959 10961 10961 10962 10961 10962 10962 10962 10964 10964 10963 10962 10962 10960 10958 10957 10957 10956 10955 10953 10951 10949 10946 10943 10941 10940 10941 10942 10944 10944 10946 10949 10950 10952 10952 10952 10954 10952 10948 10947 10946
10960 10960 10961 10963 10964 10964 10963 10963 10963 10963 10964 10965 10964 10963 10962 10961 10960 10959 10958 10957 10954 10953 10952 10950 10947 10945 10943 10942 10942 10943 10942 10941 10942 10945 10948 10949 10950 10949 10949 10948 10945 10942 10941
10967 10966 10967 10968 10969 10968 10967 10966 10966 10967 10967 10967 10966 10966 10964 10963 10962 10961 10960 10958 10957 10956 10954 10951 10948 10946 10945 10945 10944 10943 10942 10941 10941 10941 10943 10944 10944 10944 10944 10943 10942 10939 10937
10972 10972 10971 10971 10972 10971 10971 10971 10970 10970 10970 10970 10970 10969 10967 10965 10965 10963 10961 10960 10960 10958 10955 10952 10949 10947 10946 10946 10945 10943 10942 10941 10942 10942 10942 10942 10941 10940 10939 10937 10937 10934 10932
10979 10977 10976 10976 10977 10977 10977 10976 10975 10974 10974 10973 10973 10972 10970 10969 10968 10967 10965 10964 10961 10959 10956 10954 10952 10950 10948 10946 10944 10945 10945 10944 10941 10940 10940 10940 10940 10937 10935 10932 10931 10929 10926
10985 10984 10983 10982 10982 10982 10981 10980 10979 10978 10977 10976 10976 10975 10974 10973 10971 10970 10969 10967 10964 10962 10959 10957 10955 10953 10952 10950 10949 10948 10947 10946 10945 10943 10939 10938 10937 10935 10932 10929 10926 10926 10924
10991 10990 10990 10988 10988 10988 10986 10985 10984 10982 10980 10978 10978 10978 10977 10976 10974 10971 10970 10968 10966 10964 10961 10958 10956 10955 10953 10951 10949 10946 10944 10942 10940 10938 10938 10938 10935 10932 10929 10925 10923 10921 10919
10998 10997 10996 10996 10995 10994 10991 10989 10987 10985 10984 10984 10982 10982 10981 10979 10978 10976 10972 10969 10966 10963 10961 10958 10956 10954 10952 10950 10948 10946 10942 10940 10938 10935 10933 10932 10930 10928 10924 10920 10918 10917 10916
11004 11003 11004 11003 11002 10999 10997 10995 10992 10990 10989 10987 10986 10986 10984 10982 10979 10977 10974 10971 10967 10963 10960 10959 10956 10953 10950 10949 10946 10944 10941 10937 10936 10933 10931 10929 10927 10924 10920 10916 10915 10912 10911
11009 11009 11009 11008 11007 11004 11002 10999 10997 10994 10992 10990 10990 10988 10986 10984 10981 10978 10976 10972 10969 10965 10962 10960 10958 10954 10949 10947 10943 10941 10939 10935 10933 10929 10927 10924 10921 10918 10915 10912 10909 10908 10905
11013 11013 11012 11011 11010 11008 11005 11003 11000 10998 10996 10994 10992 10990 10987 10984 10981 10978 10975 10972 10969 10966 10963 10960 10958 10955 10950 10947 10943 10939 10937 10933 10929 10924 10921 10916 10913 10911 10908 10907 10904 10899 10897
11019 11018 11015 11014 11012 11011 11009 11008 11004 10999 10996 10994 10994 10991 10988 10986 10981 10979 10976 10972 10969 10967 10965 10962 10958 10955 10950 10946 10941 10936 10931 10926 10921 10917 10914 10909 10906 10903 10901 10899 10895 10892 10890
11023 11020 11018 11018 11015 11014 11011 11010 11009 11004 11001 10998 10995 10994 10990 10988 10986 10983 10980 10974 10971 10969 10966 10962 10957 10952 10946 10941 10937 10932 10927 10922 10917 10912 10907 10904 10901 10898 10895 10892 10889 10886 10884
11025 11024 11022 11021 11018 11019 11014 11014 11013 11007 11004 11001 11001 10997 10995 10993 10989 10985 10982 10977 10972 10968 10964 10960 10956 10952 10947 10940 10935 10930 10924 10918 10913 10908 10904 10900 10897 10894 10890 10887 10884 10879 10876
11028 11026 11026 11025 11024 11020 11019 11020 11015 11012 11009 11009 11004 11000 10998 10996 10991 10986 10983 10978 10976 10971 10966 10965 10961 10954 10947 10942 10935 10929 10923 10917 10912 10908 10904 10900 10895 10891 10886 10881 10876 10870 10867
11031 11030 11030 11030 11028 11027 11028 11026 11018 11018 11015 11011 11007 11003 11000 10995 10992 10989 10985 10982 10980 10973 10971 10967 10961 10953 10946 10940 10933 10928 10922 10917 10911 10905 10900 10895 10890 10885 10877 10873 10867 10862 10857
11036 11034 11032 11031 11031 11030 11029 11027 11025 11023 11017 11012 11011 11006 11003 11002 10995 10993 10990 10986 10981 10977 10974 10969 10961 10954 10948 10940 10933 10926 10920 10914 10908 10902 10897 10891 10884 10878 10871 10863 10856 10852 10845
11040 11039 11036 11033 11033 11032 11031 11029 11026 11025 11022 11018 11014 11008 11007 11004 11001 10998 10993 10987 10984 10981 10977 10970 10963 10957 10948 10942 10934 10927 10919 10914 10907 10902 10896 10890 10882 10873 10866 10856 10847 10838 10828
11043 11041 11039 11037 11036 11034 11033 11031 11028 11027 11025 11022 11017 11015 11012 11007 11002 10998 10993 10990 10987 10983 10977 10972 10967 10959 10953 10948 10941 10933 10926 10918 10910 10903 10897 10890 10882 10872 10860 10848 10838 10826 10812
11044 11043 11042 11040 11038 11037 11035 11033 11031 11028 11027 11024 11021 11017 11013 11008 11004 11000 10996 10993 10989 10984 10979 10976 10970 10963 10958 10953 10946 10938 10929 10920 10913 10904 10894 10886 10877 10864 10850 10833 10820 10805 10790
11044 11044 11043 11042 11041 11039 11037 11035 11033 11031 11028 11026 11024 11020 11016 11013 11008 11003 10999 10995 10992 10987 10982 10978 10973 10969 10962 10955 10948 10940 10932 10924 10916 10908 10898 10888 10874 10856 10839 10819 10798 10779 10760
11043 11043 11043 11042 11041 11040 11039 11036 11034 11033 11031 11027 11024 11021 11018 11014 11010 11006 11002 10998 10995 10991 10985 10980 10976 10971 10965 10958 10950 10943 10936 10929 10920 10911 10899 10882 10865 10845 10825 10803 10782 10758 10733
11042 11042 11042 11042 11041 11041 11040 11038 11037 11035 11034 11031 11028 11024 11021 11016 11011 11008 11003 11001 10997 10992 10988 10983 10979 10974 10966 10959 10951 10943 10936 10928 10921 10908 10892 10876 10860 10842 10819 10794 10766 10740 10717
11039 11039 11039 11039 11040 11040 11039 11038 11037 11036 11034 11032 11029 11025 11021 11017 11013 11008 11006 11003 11000 10994 10989 10985 10980 10975 10969 10962 10953 10945 10936 10925 10915 10904 10889 10873 10856 10833 10809 10783 10756 10731 10709
11037 11036 11036 11036 11037 11037 11038 11036 11036 11035 11034 11032 11029 11025 11022 11018 11014 11010 11008 11005 11001 10997 10993 10988 10983 10976 10970 10964 10955 10946 10936 10927 10916 10904 10889 10871 10849 10828 10803 10776 10747 10721 10700